Regional Weather Roundup
Issued by NWS Grand Forks, ND

Home | Current Version | Previous Version | Graphics & Text | Print | Product List | Glossary On
Versions: 1 2 3 4 5 6 7 8 9 10 11 12 13 14 15 16 17 18 19 20 21 22 23 24 25 26 27 28 29 30 31 32 33 34 35 36 37 38 39 40 41 42 43 44 45 46 47 48 49 50
000
ASUS43 KFGF 232131
RWRFGF
PRAIRIE TO PINES  WEATHER ROUNDUP
NATIONAL WEATHER SERVICE EASTERN NORTH DAKOTA/GRAND FORKS ND
400 PM CDT THU OCT 23 2014

 **SATELLITE DATA USED TO AUGMENT SKY COVER AT AUTOMATED STATIONS**
 *****  WEATHER ACROSS EASTERN NORTH DAKOTA  *****

CITY           SKY/WX    TMP DP  RH WIND       PRES   REMARKS
GRAND FORKS    MOSUNNY   70  37  29 SW8       29.80F
GRAND FRKS AFB SUNNY     71  38  30 SW10      29.80F
GRAND FRKS NWS   N/A     63 N/A N/A SW5         N/A
DEVILS LAKE    MOSUNNY   66  34  30 SW7       29.77F
FARGO          SUNNY     71  36  27 S17       29.84F
WAHPETON ARPT  CLEAR     72  30  21 SW10G17   29.87S
$$

 ***** WEATHER ACROSS CENTRAL AND WESTERN NORTH DAKOTA  *****

CITY           SKY/WX    TMP DP  RH WIND       PRES   REMARKS
BISMARCK       PTSUNNY   72  30  21 SW8       29.81F
MINOT          MOSUNNY   66  31  27 SW9       29.76S
JAMESTOWN      SUNNY     70  34  26 W9        29.82S
MINOT AFB      MOSUNNY   66  36  33 S10       29.74F
GARRISON         N/A     68  38  33 SW7       29.78F
WILLISTON      CLOUDY    65  35  33 SW13      29.77F
DICKINSON      MOSUNNY   69  28  21 W17       29.81S
HETTINGER      MOSUNNY   68  24  19 SW14      29.86S
$$

 *****  OTHER AIRPORT OBSERVATIONS IN OUR AREA  *****

CITY           SKY/WX    TMP DP  RH WIND       PRES   REMARKS
WALHALLA         N/A     66  36  32 SW6       29.77S
GRAFTON AIRPOR FAIR      66  37  34 W13       29.78F
VALLEY CITY AR FAIR      72  36  26 W14       29.82F
CANDO          FAIR      66  32  28 SW10      29.77F
CAVALIER APRT  FAIR      66  36  32 SW6       29.77F
GWINNER        CLEAR     72  43  35 SW14      29.87S
SHEYENNE NWR     N/A     71  40  32 SW13      29.95
ROLLA          FAIR      63  32  31 SW8       29.77R
 ***** THE ABOVE OBSERVATIONS ARE NON NWS ARE NOT QUALITY
       CONTROLLED AND MAY MIS-REPORT RAIN FOR SNOW...
$$

  *****  WEATHER ACROSS NORTHERN MINNESOTA  *****

CITY           SKY/WX    TMP DP  RH WIND       PRES   REMARKS
FLAG ISLAND    PTSUNNY   57  46  67 S8        29.77S
WARROAD        MOSUNNY   64  43  45 SW14      29.81R
ROSEAU         MOSUNNY   64  43  45 SW8       29.81R
HALLOCK        MOSUNNY   68  37  32 SW10      29.78S
THF RVR FALLS  SUNNY     66  43  42 SW14      29.83F
BAUDETTE       SUNNY     66  37  34 W10G23    29.81S
WASKISH        SUNNY     64  43  45 SW3       29.85S
CROOKSTON      SUNNY     68  43  40 S13       29.83F
STEPHEN NDAWN    N/A     70  37  30 SW8         N/A
GREENBUSH NDAW   N/A     66  43  42 SW13        N/A
$$
  *****  WEATHER ACROSS CENTRAL AND WEST MINNESOTA  *****

CITY           SKY/WX    TMP DP  RH WIND       PRES   REMARKS
FOSSTON        SUNNY     68  37  32 S14       29.86S
BEMIDJI        SUNNY     67  35  31 W9        29.86F
PARK RAPIDS    SUNNY     67  36  31 SW15      29.89F
ELBOW LAKE     FAIR      69  38  31 SW10      29.90S
WADENA         SUNNY     66  37  34 SW9       29.90S
DETROIT LAKES  SUNNY     66  37  34 SW12      29.89F
MOORHEAD       SUNNY     72  23  16 SW14      29.85F
FERGUS FALLS   SUNNY     70  30  23 SW9       29.88F
MORRIS MN      SUNNY     72  39  30 SW12      29.90S
STAPLES        SUNNY     66  36  32 SW9       29.91R
$$
  *****  WEATHER ELSEWHERE ACROSS MINNESOTA  *****

CITY           SKY/WX    TMP DP  RH WIND       PRES   REMARKS
DULUTH         MOSUNNY   57  48  72 SW7       29.93F
INTRNTL FALLS  SUNNY     67  39  35 W16G25    29.82F
ELY            SUNNY     57  46  67 S8        29.90S
CLOQUET        SUNNY     57  48  72 S5        29.93F
WHEATON        SUNNY     70  37  30 SW13      29.90S
BRAINERD       SUNNY     66  44  45 S6        29.91F
HIBBING        SUNNY     59  48  67 VRB5      29.91F
ALEXANDRIA     SUNNY     67  41  38 SW12      29.93S
SAINT CLOUD    SUNNY     70  47  43 SW8       29.93F
MINNEAPOLIS    SUNNY     67  47  48 SW5       29.95F
$$

  *****  WEATHER ACROSS SOUTH DAKOTA  *****

CITY           SKY/WX    TMP DP  RH WIND       PRES   REMARKS
SIOUX FALLS    MOSUNNY   68  44  42 SW9       29.96F
BROOKINGS      NOT AVBL
WATERTOWN      SUNNY     68  43  40 SW13      29.92F
HURON          SUNNY     73  44  35 S12       29.89F
SISSETON         N/A     72  37  28 SW12      29.88S
ABERDEEN       SUNNY     71  43  36 S14       29.88F
MITCHELL       SUNNY     73  48  41 S10       29.91F
PIERRE         PTSUNNY   69  36  29 SE7       29.87F
MOBRIDGE       MOSUNNY   69  42  37 SE10      29.84F
RAPID CITY     CLOUDY    71  29  21 E7        29.86F
$$

  *****  SOME WEATHER IN NEARBY STATES *****

CITY           SKY/WX    TMP DP  RH WIND       PRES   REMARKS
GLASGOW MT     PTSUNNY   66  37  34 W10       29.76S
GREAT FALLS MT FAIR      61  38  42 SW20G30   29.78F
CHEYENNE WY    MOSUNNY   69  28  21 W18       30.12F
SCOTTSBLUFF NE SUNNY     76  33  21 W13       29.99F
OMAHA NE       MOSUNNY   72  47  40 VRB3      30.01F
DES MOINES IA  MOSUNNY   72  51  47 N5        30.00F
DAVENPORT IA   CLOUDY    59  46  62 SW12      30.03F
CHICAGO IL     CLOUDY    57  42  57 S12       30.08F
EAU CLAIRE WI  CLOUDY    52  50  93 S6        29.99S FOG
LA CROSSE WI   CLOUDY    50  48  93 S7        30.02F FOG
$$

  *****  SOME NATIONAL WEATHER *****

CITY           SKY/WX    TMP DP  RH WIND       PRES   REMARKS
LA GUARDIA NY  PTSUNNY   53  46  77 N25       29.69R
RALEIGH NC     SUNNY     69  44  40 NW8       29.93R
ATLANTA GA     PTSUNNY   70  38  31 NW8       30.03S
NEW ORLEANS LA PTSUNNY   74  46  36 N8        30.04S
OKLAHOMA CITY  PTSUNNY   79  58  48 S10       30.04F
ALBUQUERQUE NM SUNNY     72  36  26 VRB3      30.21F
SALT LAKE CITY PTSUNNY   70  36  28 N9        30.06F
LOS ANGELES CA FAIR      76  63  64 W9        29.95F
BOISE ID       CLOUDY    62  43  49 SE12      30.01F
SEATTLE WA     PTSUNNY   57  48  72 S9        29.84R
$$

*** WEATHER ACROSS MANITOBA...SASKATCHEWAN AND ONTARIO ***
                ***ONTARIO***

CITY           SKY/WX    TMP DP  RH WIND       PRES   REMARKS
GERALDTON      NOT AVBL
THUNDER BAY    CLOUDY    50  48  93 NE6       29.94
SIOUX LOOKOUT  PTSUNNY   55  48  76 S6        29.82
TORONTO        MOSUNNY   59  41  51 NW17      30.07S
BIG TROUT LK   CLOUDY    54  45  71 S6        29.74S
PICKLE LAKE    CLOUDY    52  45  76 SW8       29.82R
DRYDEN         NOT AVBL
KENORA         PTSUNNY   55  46  71 S9        29.78
$$
                *** MANITOBA***

CITY           SKY/WX    TMP DP  RH WIND       PRES   REMARKS
BRANDON        CLOUDY    64  41  42 SW8       29.72F
DAUPHIN        SUNNY     59  48  67 VRB2      29.68F
ISLAND LAKE    LGT RAIN N/A N/A N/A SW5         N/A
PILOT MOUND      N/A     66  34  30 SW8         N/A
THE PAS        DRIZZLE   43  43 100 SE5       29.66  FOG
THOMPSON       LGT SNOW N/A N/A N/A NE10        N/A
WINNIPEG       MOSUNNY   63  45  51 SW10      29.76
LYNN LAKE      LGT RAIN  36  36 100 E7        29.72F FOG
CHURCHILL      LGT RAIN  37  37 100 E18G26    29.90F FOG
GILLAM         DRIZZLE   41  39  93 NE8       29.68F
$$
                ***SASKATCHEWAN***

CITY           SKY/WX    TMP DP  RH WIND       PRES   REMARKS
ESTEVAN        CLOUDY    64  36  34 SW16      29.71F
KINDERSLEY     PTSUNNY   64  37  36 W28G37    29.54
LLOYDMINSTER   MOSUNNY   64  34  32 SW20G28   29.42R
PRINCE ALBERT  MOSUNNY   54  46  76 SE12      29.53F
REGINA         PTSUNNY   61  41  48 SW13      29.68R
YORKTON        SUNNY     57  39  51 S8        29.65F
N. BATTLEFORD  SUNNY     64  41  42 SW17G28   29.49F
LA RONGE       LGT RAIN  45  43  93 E12       29.58F
SASKATOON      PTSUNNY   57  45  62 S14       29.55
SWIFT CURRENT  MOSUNNY   61  39  44 W31G39    29.63F
$$
NOTE: THESE ARE AUTOMATED STATIONS WITH LIMITED QUALITY CONTROL
      "FAIR" INDICATES FEW OR NO CLOUDS BELOW 12,000 FEET WITH NO
      SIGNIFICANT WEATHER AND/OR OBSTRUCTIONS TO VISIBILITY.
      SKY/WX - SKY CONDITION AND SIGNIFICANT WEATHER.
      TMP - AIR TEMPERATURE.    DP   - DEWPOINT TEMPERATURE.
      RH  - RELATIVE HUMIDITY.  PRES - PRESSURE.
      HX  - HEAT INDEX.         WCI  - WIND CHILL INDEX.
$



USA.gov is the U.S. government's official web portal to all federal, state and local government web resources and services.